Find Starlink 30189

NORAD ID: 57430 Int'l Des: 2023-105 Owner: SPXS Country: US Constellation: starlink decayed
LEOCIRCULAR
Vis

Historical Track — 1. Mai 2025

3D-Globus wird geladen...

Über Starlink 30189

Beschreibung wird geladen...

Höhenverlauf

Loading altitude history...

Zweizeiliger Elementsatz

1 57430U 23105A 26118.87619734 .04438707 39168-1 43894-2 0 9994
2 57430 42.9920 292.4833 0006872 298.9102 61.1092 16.13971091153727
Epoch: 28. Apr. 2026 • Age: 358 hours

Aktueller Status

Position data unavailable
Startdatum 24. Juli 2023
Alter 2.8 years
Verglühungsdatum 1. Mai 2025
Typ internet

Technische Details

Klassifizierung Payload
Masse 730.00 kg
Trockenmasse 700.00 kg
Gesamtmasse 730.00 kg
Länge 0.30 m
Durchmesser 4.10 m
Spannweite 29.00 m
Form Box + pan
Hersteller SPXS
Bus-Typ Starlink V2M
Phasenstatus Unknown Transfer Status
Besitzer/Staat SPXS/US

Most Searched